Year,Month,Day,Hour,Minute,Value (Times are PST for temperature in C)
2008,08,19,00,00,16.30
2008,08,19,00,01,16.30
2008,08,19,00,02,16.20
2008,08,19,00,03,16.20
2008,08,19,00,04,16.20
2008,08,19,00,05,16.20
2008,08,19,00,06,16.20
2008,08,19,00,07,16.20
2008,08,19,00,08,16.20
2008,08,19,00,09,16.20
2008,08,19,00,10,16.20
2008,08,19,00,11,16.20
2008,08,19,00,12,16.20
2008,08,19,00,13,16.20
2008,08,19,00,14,16.20
2008,08,19,00,15,16.20
2008,08,19,00,16,16.10
2008,08,19,00,17,16.10
2008,08,19,00,18,16.10
2008,08,19,00,19,16.10
2008,08,19,00,20,16.10
2008,08,19,00,21,16.10
2008,08,19,00,22,16.10
2008,08,19,00,23,16.10
2008,08,19,00,24,16.20
2008,08,19,00,25,16.20
2008,08,19,00,26,16.20
2008,08,19,00,27,16.20
2008,08,19,00,28,16.20
2008,08,19,00,29,16.20
2008,08,19,00,30,16.10
2008,08,19,00,31,16.10
2008,08,19,00,32,16.10
2008,08,19,00,33,16.10
2008,08,19,00,34,16.10
2008,08,19,00,35,16.10
2008,08,19,00,36,16.10
2008,08,19,00,37,16.10
2008,08,19,00,38,16.10
2008,08,19,00,39,16.10
2008,08,19,00,40,16.10
2008,08,19,00,41,16.10
2008,08,19,00,42,16.10
2008,08,19,00,43,16.10
2008,08,19,00,44,16.10
2008,08,19,00,45,16.10
2008,08,19,00,46,16.10
2008,08,19,00,47,16.10
2008,08,19,00,48,16.10
2008,08,19,00,49,16.00
2008,08,19,00,50,16.00
2008,08,19,00,51,16.00
2008,08,19,00,52,16.00
2008,08,19,00,53,16.00
2008,08,19,00,54,16.00
2008,08,19,00,55,16.00
2008,08,19,00,56,16.00
2008,08,19,00,57,16.00
2008,08,19,00,58,16.00
2008,08,19,00,59,15.90
2008,08,19,01,00,15.90
2008,08,19,01,01,15.90
2008,08,19,01,02,15.90
2008,08,19,01,03,15.90
2008,08,19,01,04,15.90
2008,08,19,01,05,15.90
2008,08,19,01,06,15.90
2008,08,19,01,07,15.90
2008,08,19,01,08,15.90
2008,08,19,01,09,15.90
2008,08,19,01,10,15.90
2008,08,19,01,11,15.90
2008,08,19,01,12,15.90
2008,08,19,01,13,15.90
2008,08,19,01,14,15.90
2008,08,19,01,15,15.90
2008,08,19,01,16,15.90
2008,08,19,01,17,15.90
2008,08,19,01,18,15.90
2008,08,19,01,19,15.90
2008,08,19,01,20,15.90
2008,08,19,01,21,15.80
2008,08,19,01,22,15.80
2008,08,19,01,23,15.80
2008,08,19,01,24,15.80
2008,08,19,01,25,15.80
2008,08,19,01,26,15.80
2008,08,19,01,27,15.80
2008,08,19,01,28,15.80
2008,08,19,01,29,15.70
2008,08,19,01,30,15.70
2008,08,19,01,31,15.70
2008,08,19,01,32,15.60
2008,08,19,01,33,15.60
2008,08,19,01,34,15.50
2008,08,19,01,35,15.50
2008,08,19,01,36,15.40
2008,08,19,01,37,15.40
2008,08,19,01,38,15.40
2008,08,19,01,39,15.40
2008,08,19,01,40,15.40
2008,08,19,01,41,15.30
2008,08,19,01,42,15.30
2008,08,19,01,43,15.30
2008,08,19,01,44,15.30
2008,08,19,01,45,15.30
2008,08,19,01,46,15.30
2008,08,19,01,47,15.30
2008,08,19,01,48,15.30
2008,08,19,01,49,15.30
2008,08,19,01,50,15.30
2008,08,19,01,51,15.30
2008,08,19,01,52,15.30
2008,08,19,01,53,15.30
2008,08,19,01,54,15.20
2008,08,19,01,55,15.20
2008,08,19,01,56,15.20
2008,08,19,01,57,15.20
2008,08,19,01,58,15.20
2008,08,19,01,59,15.20
2008,08,19,02,00,15.20
2008,08,19,02,01,15.20
2008,08,19,02,02,15.20
2008,08,19,02,03,15.20
2008,08,19,02,04,15.20
2008,08,19,02,05,15.20
2008,08,19,02,06,15.20
2008,08,19,02,07,15.10
2008,08,19,02,08,15.10
2008,08,19,02,09,15.10
2008,08,19,02,10,15.10
2008,08,19,02,11,15.10
2008,08,19,02,12,15.10
2008,08,19,02,13,15.10
2008,08,19,02,14,15.10
2008,08,19,02,15,15.10
2008,08,19,02,16,15.10
2008,08,19,02,17,15.00
2008,08,19,02,18,15.00
2008,08,19,02,19,15.00
2008,08,19,02,20,15.00
2008,08,19,02,21,15.00
2008,08,19,02,22,15.00
2008,08,19,02,23,15.00
2008,08,19,02,24,15.00
2008,08,19,02,25,15.00
2008,08,19,02,26,15.00
2008,08,19,02,27,15.00
2008,08,19,02,28,15.00
2008,08,19,02,29,15.00
2008,08,19,02,30,15.00
2008,08,19,02,31,15.00
2008,08,19,02,32,14.90
2008,08,19,02,33,14.90
2008,08,19,02,34,14.90
2008,08,19,02,35,14.90
2008,08,19,02,36,14.80
2008,08,19,02,37,14.80
2008,08,19,02,38,14.80
2008,08,19,02,39,14.80
2008,08,19,02,40,14.80
2008,08,19,02,41,14.80
2008,08,19,02,42,14.70
2008,08,19,02,43,14.70
2008,08,19,02,44,14.70
2008,08,19,02,45,14.70
2008,08,19,02,46,14.70
2008,08,19,02,47,14.70
2008,08,19,02,48,14.70
2008,08,19,02,49,14.60
2008,08,19,02,50,14.60
2008,08,19,02,51,14.70
2008,08,19,02,52,14.70
2008,08,19,02,53,14.70
2008,08,19,02,54,14.70
2008,08,19,02,55,14.70
2008,08,19,02,56,14.70
2008,08,19,02,57,14.70
2008,08,19,02,58,14.70
2008,08,19,02,59,14.70
2008,08,19,03,00,14.70
2008,08,19,03,01,14.70
2008,08,19,03,02,14.70
2008,08,19,03,03,14.70
2008,08,19,03,04,14.60
2008,08,19,03,05,14.60
2008,08,19,03,06,14.60
2008,08,19,03,07,14.60
2008,08,19,03,08,14.60
2008,08,19,03,09,14.60
2008,08,19,03,10,14.60
2008,08,19,03,11,14.60
2008,08,19,03,12,14.60
2008,08,19,03,13,14.60
2008,08,19,03,14,14.60
2008,08,19,03,15,14.60
2008,08,19,03,16,14.60
2008,08,19,03,17,14.60
2008,08,19,03,18,14.60
2008,08,19,03,19,14.60
2008,08,19,03,20,14.60
2008,08,19,03,21,14.60
2008,08,19,03,22,14.60
2008,08,19,03,23,14.50
2008,08,19,03,24,14.50
2008,08,19,03,25,14.50
2008,08,19,03,26,14.50
2008,08,19,03,27,14.50
2008,08,19,03,28,14.50
2008,08,19,03,29,14.40
2008,08,19,03,30,14.40
2008,08,19,03,31,14.40
2008,08,19,03,32,14.40
2008,08,19,03,33,14.30
2008,08,19,03,34,14.30
2008,08,19,03,35,14.30
2008,08,19,03,36,14.20
2008,08,19,03,37,14.20
2008,08,19,03,38,14.10
2008,08,19,03,39,14.10
2008,08,19,03,40,14.10
2008,08,19,03,41,14.00
2008,08,19,03,42,13.90
2008,08,19,03,43,13.90
2008,08,19,03,44,13.80
2008,08,19,03,45,13.80
2008,08,19,03,46,13.80
2008,08,19,03,47,13.70
2008,08,19,03,48,13.70
2008,08,19,03,49,13.70
2008,08,19,03,50,13.70
2008,08,19,03,51,13.60
2008,08,19,03,52,13.60
2008,08,19,03,53,13.60
2008,08,19,03,54,13.60
2008,08,19,03,55,13.60
2008,08,19,03,56,13.60
2008,08,19,03,57,13.70
2008,08,19,03,58,13.70
2008,08,19,03,59,13.70
2008,08,19,04,00,13.70
2008,08,19,04,01,13.70
2008,08,19,04,02,13.60
2008,08,19,04,03,13.60
2008,08,19,04,04,13.60
2008,08,19,04,05,13.50
2008,08,19,04,06,13.50
2008,08,19,04,07,13.50
2008,08,19,04,08,13.40
2008,08,19,04,09,13.40
2008,08,19,04,10,13.40
2008,08,19,04,11,13.40
2008,08,19,04,12,13.40
2008,08,19,04,13,13.40
2008,08,19,04,14,13.30
2008,08,19,04,15,13.30
2008,08,19,04,16,13.30
2008,08,19,04,17,13.30
2008,08,19,04,18,13.30
2008,08,19,04,19,13.30
2008,08,19,04,20,13.30
2008,08,19,04,21,13.20
2008,08,19,04,22,13.30
2008,08,19,04,23,13.20
2008,08,19,04,24,13.20
2008,08,19,04,25,13.20
2008,08,19,04,26,13.20
2008,08,19,04,27,13.20
2008,08,19,04,28,13.20
2008,08,19,04,29,13.20
2008,08,19,04,30,13.20
2008,08,19,04,31,13.20
2008,08,19,04,32,13.20
2008,08,19,04,33,13.20
2008,08,19,04,34,13.10
2008,08,19,04,35,13.20
2008,08,19,04,36,13.20
2008,08,19,04,37,13.20
2008,08,19,04,38,13.20
2008,08,19,04,39,13.20
2008,08,19,04,40,13.20
2008,08,19,04,41,13.10
2008,08,19,04,42,13.10
2008,08,19,04,43,13.20
2008,08,19,04,44,13.10
2008,08,19,04,45,13.20
2008,08,19,04,46,13.20
2008,08,19,04,47,13.10
2008,08,19,04,48,13.10
2008,08,19,04,49,13.10
2008,08,19,04,50,13.10
2008,08,19,04,51,13.10
2008,08,19,04,52,13.10
2008,08,19,04,53,13.10
2008,08,19,04,54,13.10
2008,08,19,04,55,13.10
2008,08,19,04,56,13.10
2008,08,19,04,57,13.10
2008,08,19,04,58,13.20
2008,08,19,04,59,13.20
2008,08,19,05,00,13.20
2008,08,19,05,01,13.20
2008,08,19,05,02,13.20
2008,08,19,05,03,13.20
2008,08,19,05,04,13.20
2008,08,19,05,05,13.20
2008,08,19,05,06,13.20
2008,08,19,05,07,13.20
2008,08,19,05,08,13.20
2008,08,19,05,09,13.20
2008,08,19,05,10,13.20
2008,08,19,05,11,13.20
2008,08,19,05,12,13.20
2008,08,19,05,13,13.20
2008,08,19,05,14,13.20
2008,08,19,05,15,13.20
2008,08,19,05,16,13.20
2008,08,19,05,17,13.20
2008,08,19,05,18,13.20
2008,08,19,05,19,13.20
2008,08,19,05,20,13.30
2008,08,19,05,21,13.30
2008,08,19,05,22,13.30
2008,08,19,05,23,13.30
2008,08,19,05,24,13.30
2008,08,19,05,25,13.30
2008,08,19,05,26,13.30
2008,08,19,05,27,13.30
2008,08,19,05,28,13.30
2008,08,19,05,29,13.30
2008,08,19,05,30,13.30
2008,08,19,05,31,13.30
2008,08,19,05,32,13.30
2008,08,19,05,33,13.30
2008,08,19,05,34,13.30
2008,08,19,05,35,13.40
2008,08,19,05,36,13.40
2008,08,19,05,37,13.40
2008,08,19,05,38,13.40
2008,08,19,05,39,13.40
2008,08,19,05,40,13.40
2008,08,19,05,41,13.40
2008,08,19,05,42,13.40
2008,08,19,05,43,13.40
2008,08,19,05,44,13.50
2008,08,19,05,45,13.50
2008,08,19,05,46,13.50
2008,08,19,05,47,13.50
2008,08,19,05,48,13.50
2008,08,19,05,49,13.50
2008,08,19,05,50,13.50
2008,08,19,05,51,13.50
2008,08,19,05,52,13.60
2008,08,19,05,53,13.60
2008,08,19,05,54,13.60
2008,08,19,05,55,13.60
2008,08,19,05,56,13.60
2008,08,19,05,57,13.60
2008,08,19,05,58,13.60
2008,08,19,05,59,13.70
2008,08,19,06,00,13.70
2008,08,19,06,01,13.70
2008,08,19,06,02,13.70
2008,08,19,06,03,13.70
2008,08,19,06,04,13.70
2008,08,19,06,05,13.70
2008,08,19,06,06,13.70
2008,08,19,06,07,13.70
2008,08,19,06,08,13.80
2008,08,19,06,09,13.80
2008,08,19,06,10,13.80
2008,08,19,06,11,13.80
2008,08,19,06,12,13.80
2008,08,19,06,13,13.80
2008,08,19,06,14,13.80
2008,08,19,06,15,13.80
2008,08,19,06,16,13.80
2008,08,19,06,17,13.80
2008,08,19,06,18,13.80
2008,08,19,06,19,13.80
2008,08,19,06,20,13.80
2008,08,19,06,21,13.80
2008,08,19,06,22,13.80
2008,08,19,06,23,13.80
2008,08,19,06,24,13.80
2008,08,19,06,25,13.80
2008,08,19,06,26,13.80
2008,08,19,06,27,13.90
2008,08,19,06,28,13.90
2008,08,19,06,29,13.90
2008,08,19,06,30,13.90
2008,08,19,06,31,13.90
2008,08,19,06,32,13.90
2008,08,19,06,33,13.90
2008,08,19,06,34,14.00
2008,08,19,06,35,14.00
2008,08,19,06,36,14.00
2008,08,19,06,37,14.10
2008,08,19,06,38,14.10
2008,08,19,06,39,14.10
2008,08,19,06,40,14.10
2008,08,19,06,41,14.10
2008,08,19,06,42,14.10
2008,08,19,06,43,14.10
2008,08,19,06,44,14.10
2008,08,19,06,45,14.10
2008,08,19,06,46,14.10
2008,08,19,06,47,14.10
2008,08,19,06,48,14.10
2008,08,19,06,49,14.10
2008,08,19,06,50,14.10
2008,08,19,06,51,14.10
2008,08,19,06,52,14.20
2008,08,19,06,53,14.20
2008,08,19,06,54,14.20
2008,08,19,06,55,14.20
2008,08,19,06,56,14.30
2008,08,19,06,57,14.30
2008,08,19,06,58,14.30
2008,08,19,06,59,14.30
2008,08,19,07,00,14.40
2008,08,19,07,01,14.40
2008,08,19,07,02,14.40
2008,08,19,07,03,14.40
2008,08,19,07,04,14.50
2008,08,19,07,05,14.50
2008,08,19,07,06,14.60
2008,08,19,07,07,14.60
2008,08,19,07,08,14.70
2008,08,19,07,09,14.70
2008,08,19,07,10,14.80
2008,08,19,07,11,14.80
2008,08,19,07,12,14.90
2008,08,19,07,13,15.00
2008,08,19,07,14,15.00
2008,08,19,07,15,15.00
2008,08,19,07,16,15.00
2008,08,19,07,17,15.00
2008,08,19,07,18,15.00
2008,08,19,07,19,15.00
2008,08,19,07,20,15.00
2008,08,19,07,21,15.00
2008,08,19,07,22,15.10
2008,08,19,07,23,15.20
2008,08,19,07,24,15.20
2008,08,19,07,25,15.20
2008,08,19,07,26,15.20
2008,08,19,07,27,15.30
2008,08,19,07,28,15.30
2008,08,19,07,29,15.30
2008,08,19,07,30,15.30
2008,08,19,07,31,15.40
2008,08,19,07,32,15.50
2008,08,19,07,33,15.50
2008,08,19,07,34,15.60
2008,08,19,07,35,15.60
2008,08,19,07,36,15.60
2008,08,19,07,37,15.60
2008,08,19,07,38,15.60
2008,08,19,07,39,15.60
2008,08,19,07,40,15.60
2008,08,19,07,41,15.60
2008,08,19,07,42,15.60
2008,08,19,07,43,15.60
2008,08,19,07,44,15.70
2008,08,19,07,45,15.70
2008,08,19,07,46,15.70
2008,08,19,07,47,15.70
2008,08,19,07,48,15.70
2008,08,19,07,49,15.70
2008,08,19,07,50,15.70
2008,08,19,07,51,15.70
2008,08,19,07,52,15.70
2008,08,19,07,53,15.80
2008,08,19,07,54,15.80
2008,08,19,07,55,15.80
2008,08,19,07,56,15.80
2008,08,19,07,57,15.80
2008,08,19,07,58,15.90
2008,08,19,07,59,15.90
2008,08,19,08,00,16.00
2008,08,19,08,01,16.00
2008,08,19,08,02,16.10
2008,08,19,08,03,16.10
2008,08,19,08,04,16.00
2008,08,19,08,05,15.90
2008,08,19,08,06,15.90
2008,08,19,08,07,15.80
2008,08,19,08,08,15.80
2008,08,19,08,09,15.80
2008,08,19,08,10,15.80
2008,08,19,08,11,15.80
2008,08,19,08,12,15.80
2008,08,19,08,13,15.80
2008,08,19,08,14,15.80
2008,08,19,08,15,15.80
2008,08,19,08,16,15.90
2008,08,19,08,17,15.90
2008,08,19,08,18,16.00
2008,08,19,08,19,16.10
2008,08,19,08,20,16.10
2008,08,19,08,21,16.20
2008,08,19,08,22,16.30
2008,08,19,08,23,16.40
2008,08,19,08,24,16.50
2008,08,19,08,25,16.70
2008,08,19,08,26,16.80
2008,08,19,08,27,16.90
2008,08,19,08,28,17.00
2008,08,19,08,29,17.10
2008,08,19,08,30,17.20
2008,08,19,08,31,17.30
2008,08,19,08,32,17.30
2008,08,19,08,33,17.40
2008,08,19,08,34,17.50
2008,08,19,08,35,17.50
2008,08,19,08,36,17.60
2008,08,19,08,37,17.60
2008,08,19,08,38,17.60
2008,08,19,08,39,17.70
2008,08,19,08,40,17.70
2008,08,19,08,41,17.70
2008,08,19,08,42,17.70
2008,08,19,08,43,17.70
2008,08,19,08,44,17.70
2008,08,19,08,45,17.70
2008,08,19,08,46,17.70
2008,08,19,08,47,17.80
2008,08,19,08,48,17.80
2008,08,19,08,49,17.80
2008,08,19,08,50,17.90
2008,08,19,08,51,17.90
2008,08,19,08,52,17.80
2008,08,19,08,53,17.80
2008,08,19,08,54,17.70
2008,08,19,08,55,17.60
2008,08,19,08,56,17.40
2008,08,19,08,57,17.40
2008,08,19,08,58,17.30
2008,08,19,08,59,17.30
2008,08,19,09,00,17.30
2008,08,19,09,01,17.30
2008,08,19,09,02,17.30
2008,08,19,09,03,17.30
2008,08,19,09,04,17.20
2008,08,19,09,05,17.10
2008,08,19,09,06,17.10
2008,08,19,09,07,17.10
2008,08,19,09,08,17.00
2008,08,19,09,09,17.00
2008,08,19,09,10,16.90
2008,08,19,09,11,16.90
2008,08,19,09,12,16.90
2008,08,19,09,13,16.90
2008,08,19,09,14,16.90
2008,08,19,09,15,16.90
2008,08,19,09,16,16.90
2008,08,19,09,17,16.90
2008,08,19,09,18,16.90
2008,08,19,09,19,16.90
2008,08,19,09,20,16.80
2008,08,19,09,21,16.70
2008,08,19,09,22,16.60
2008,08,19,09,23,16.50
2008,08,19,09,24,16.50
2008,08,19,09,25,16.40
2008,08,19,09,26,16.40
2008,08,19,09,27,16.30
2008,08,19,09,28,16.30
2008,08,19,09,29,16.30
2008,08,19,09,30,16.30
2008,08,19,09,31,16.30
2008,08,19,09,32,16.30
2008,08,19,09,33,16.30
2008,08,19,09,34,16.30
2008,08,19,09,35,16.30
2008,08,19,09,36,16.30
2008,08,19,09,37,16.30
2008,08,19,09,38,16.30
2008,08,19,09,39,16.30
2008,08,19,09,40,16.40
2008,08,19,09,41,16.40
2008,08,19,09,42,16.40
2008,08,19,09,43,16.40
2008,08,19,09,44,16.40
2008,08,19,09,45,16.40
2008,08,19,09,46,16.40
2008,08,19,09,47,16.30
2008,08,19,09,48,16.30
2008,08,19,09,49,16.30
2008,08,19,09,50,16.30
2008,08,19,09,51,16.30
2008,08,19,09,52,16.30
2008,08,19,09,53,16.30
2008,08,19,09,54,16.30
2008,08,19,09,55,16.30
2008,08,19,09,56,16.30
2008,08,19,09,57,16.40
2008,08,19,09,58,16.40
2008,08,19,09,59,16.40
2008,08,19,10,00,16.40
2008,08,19,10,01,16.50
2008,08,19,10,02,16.60
2008,08,19,10,03,16.60
2008,08,19,10,04,16.60
2008,08,19,10,05,16.70
2008,08,19,10,06,16.70
2008,08,19,10,07,16.70
2008,08,19,10,08,16.70
2008,08,19,10,09,16.80
2008,08,19,10,10,16.80
2008,08,19,10,11,16.80
2008,08,19,10,12,16.80
2008,08,19,10,13,16.80
2008,08,19,10,14,16.70
2008,08,19,10,15,16.70
2008,08,19,10,16,16.70
2008,08,19,10,17,16.70
2008,08,19,10,18,16.70
2008,08,19,10,19,16.70
2008,08,19,10,20,16.70
2008,08,19,10,21,16.70
2008,08,19,10,22,16.70
2008,08,19,10,23,16.70
2008,08,19,10,24,16.80
2008,08,19,10,25,16.80
2008,08,19,10,26,16.70
2008,08,19,10,27,16.70
2008,08,19,10,28,16.70
2008,08,19,10,29,16.60
2008,08,19,10,30,16.60
2008,08,19,10,31,16.60
2008,08,19,10,32,16.60
2008,08,19,10,33,16.60
2008,08,19,10,34,16.60
2008,08,19,10,35,16.60
2008,08,19,10,36,16.60
2008,08,19,10,37,16.60
2008,08,19,10,38,16.60
2008,08,19,10,39,16.60
2008,08,19,10,40,16.60
2008,08,19,10,41,16.60
2008,08,19,10,42,16.60
2008,08,19,10,43,16.60
2008,08,19,10,44,16.60
2008,08,19,10,45,16.60
2008,08,19,10,46,16.70
2008,08,19,10,47,16.70
2008,08,19,10,48,16.70
2008,08,19,10,49,16.80
2008,08,19,10,50,16.80
2008,08,19,10,51,16.90
2008,08,19,10,52,17.00
2008,08,19,10,53,17.00
2008,08,19,10,54,17.10
2008,08,19,10,55,17.20
2008,08,19,10,56,17.20
2008,08,19,10,57,17.30
2008,08,19,10,58,17.40
2008,08,19,10,59,17.50
2008,08,19,11,00,17.60
2008,08,19,11,01,17.60
2008,08,19,11,02,17.70
2008,08,19,11,03,17.70
2008,08,19,11,04,17.70
2008,08,19,11,05,17.70
2008,08,19,11,06,17.70
2008,08,19,11,07,17.70
2008,08,19,11,08,17.80
2008,08,19,11,09,17.80
2008,08,19,11,10,17.80
2008,08,19,11,11,17.90
2008,08,19,11,12,17.90
2008,08,19,11,13,18.00
2008,08,19,11,14,18.00
2008,08,19,11,15,18.00
2008,08,19,11,16,18.10
2008,08,19,11,17,18.10
2008,08,19,11,18,18.10
2008,08,19,11,19,18.20
2008,08,19,11,20,18.20
2008,08,19,11,21,18.30
2008,08,19,11,22,18.30
2008,08,19,11,23,18.30
2008,08,19,11,24,18.30
2008,08,19,11,25,18.30
2008,08,19,11,26,18.40
2008,08,19,11,27,18.40
2008,08,19,11,28,18.50
2008,08,19,11,29,18.60
2008,08,19,11,30,18.70
2008,08,19,11,31,18.70
2008,08,19,11,32,18.80
2008,08,19,11,33,18.80
2008,08,19,11,34,18.70
2008,08,19,11,35,18.70
2008,08,19,11,36,18.70
2008,08,19,11,37,18.70
2008,08,19,11,38,18.70
2008,08,19,11,39,18.70
2008,08,19,11,40,18.60
2008,08,19,11,41,18.60
2008,08,19,11,42,18.60
2008,08,19,11,43,18.60
2008,08,19,11,44,18.60
2008,08,19,11,45,18.60
2008,08,19,11,46,18.60
2008,08,19,11,47,18.60
2008,08,19,11,48,18.60
2008,08,19,11,49,18.70
2008,08,19,11,50,18.70
2008,08,19,11,51,18.70
2008,08,19,11,52,18.60
2008,08,19,11,53,18.50
2008,08,19,11,54,18.40
2008,08,19,11,55,18.30
2008,08,19,11,56,18.20
2008,08,19,11,57,18.20
2008,08,19,11,58,18.20
2008,08,19,11,59,18.20
2008,08,19,12,00,18.20
2008,08,19,12,01,18.20
2008,08,19,12,02,18.20
2008,08,19,12,03,18.20
2008,08,19,12,04,18.30
2008,08,19,12,05,18.30
2008,08,19,12,06,18.30
2008,08,19,12,07,18.30
2008,08,19,12,08,18.30
2008,08,19,12,09,18.30
2008,08,19,12,10,18.30
2008,08,19,12,11,18.40
2008,08,19,12,12,18.50
2008,08,19,12,13,18.60
2008,08,19,12,14,18.70
2008,08,19,12,15,18.70
2008,08,19,12,16,18.70
2008,08,19,12,17,18.70
2008,08,19,12,18,18.70
2008,08,19,12,19,18.60
2008,08,19,12,20,18.60
2008,08,19,12,21,18.50
2008,08,19,12,22,18.60
2008,08,19,12,23,18.60
2008,08,19,12,24,18.60
2008,08,19,12,25,18.70
2008,08,19,12,26,18.70
2008,08,19,12,27,18.70
2008,08,19,12,28,18.60
2008,08,19,12,29,18.60
2008,08,19,12,30,18.50
2008,08,19,12,31,18.40
2008,08,19,12,32,18.30
2008,08,19,12,33,18.30
2008,08,19,12,34,18.30
2008,08,19,12,35,18.30
2008,08,19,12,36,18.30
2008,08,19,12,37,18.20
2008,08,19,12,38,18.20
2008,08,19,12,39,18.20
2008,08,19,12,40,18.10
2008,08,19,12,41,18.10
2008,08,19,12,42,18.00
2008,08,19,12,43,18.00
2008,08,19,12,44,18.00
2008,08,19,12,45,18.00
2008,08,19,12,46,18.00
2008,08,19,12,47,17.90
2008,08,19,12,48,17.90
2008,08,19,12,49,17.80
2008,08,19,12,50,17.90
2008,08,19,12,51,17.90
2008,08,19,12,52,17.90
2008,08,19,12,53,17.90
2008,08,19,12,54,17.90
2008,08,19,12,55,17.80
2008,08,19,12,56,17.80
2008,08,19,12,57,17.70
2008,08,19,12,58,17.60
2008,08,19,12,59,17.60
2008,08,19,13,00,17.50
2008,08,19,13,01,17.50
2008,08,19,13,02,17.50
2008,08,19,13,03,17.60
2008,08,19,13,04,17.70
2008,08,19,13,05,17.70
2008,08,19,13,06,17.70
2008,08,19,13,07,17.70
2008,08,19,13,08,17.70
2008,08,19,13,09,17.70
2008,08,19,13,10,17.70
2008,08,19,13,11,17.70
2008,08,19,13,12,17.70
2008,08,19,13,13,17.60
2008,08,19,13,14,17.50
2008,08,19,13,15,17.40
2008,08,19,13,16,17.30
2008,08,19,13,17,17.30
2008,08,19,13,18,17.30
2008,08,19,13,19,17.30
2008,08,19,13,20,17.30
2008,08,19,13,21,17.30
2008,08,19,13,22,17.30
2008,08,19,13,23,17.40
2008,08,19,13,24,17.40
2008,08,19,13,25,17.50
2008,08,19,13,26,17.50
2008,08,19,13,27,17.60
2008,08,19,13,28,17.60
2008,08,19,13,29,17.70
2008,08,19,13,30,17.70
2008,08,19,13,31,17.80
2008,08,19,13,32,17.80
2008,08,19,13,33,17.90
2008,08,19,13,34,17.90
2008,08,19,13,35,17.90
2008,08,19,13,36,17.90
2008,08,19,13,37,17.80
2008,08,19,13,38,17.80
2008,08,19,13,39,17.90
2008,08,19,13,40,17.90
2008,08,19,13,41,17.90
2008,08,19,13,42,17.80
2008,08,19,13,43,17.80
2008,08,19,13,44,17.80
2008,08,19,13,45,17.80
2008,08,19,13,46,17.70
2008,08,19,13,47,17.70
2008,08,19,13,48,17.70
2008,08,19,13,49,17.70
2008,08,19,13,50,17.80
2008,08,19,13,51,17.80
2008,08,19,13,52,17.90
2008,08,19,13,53,17.90
2008,08,19,13,54,17.80
2008,08,19,13,55,17.80
2008,08,19,13,56,17.70
2008,08,19,13,57,17.70
2008,08,19,13,58,17.60
2008,08,19,13,59,17.70
2008,08,19,14,00,17.70
2008,08,19,14,01,17.70
2008,08,19,14,02,17.70
2008,08,19,14,03,17.80
2008,08,19,14,04,17.70
2008,08,19,14,05,17.70
2008,08,19,14,06,17.70
2008,08,19,14,07,17.60
2008,08,19,14,08,17.50
2008,08,19,14,09,17.50
2008,08,19,14,10,17.60
2008,08,19,14,11,17.60
2008,08,19,14,12,17.60
2008,08,19,14,13,17.70
2008,08,19,14,14,17.70
2008,08,19,14,15,17.80
2008,08,19,14,16,17.80
2008,08,19,14,17,17.90
2008,08,19,14,18,17.90
2008,08,19,14,19,18.00
2008,08,19,14,20,18.00
2008,08,19,14,21,18.00
2008,08,19,14,22,18.00
2008,08,19,14,23,17.90
2008,08,19,14,24,17.80
2008,08,19,14,25,17.70
2008,08,19,14,26,17.70
2008,08,19,14,27,17.70
2008,08,19,14,28,17.70
2008,08,19,14,29,17.70
2008,08,19,14,30,17.70
2008,08,19,14,31,17.70
2008,08,19,14,32,17.70
2008,08,19,14,33,17.70
2008,08,19,14,34,17.70
2008,08,19,14,35,17.70
2008,08,19,14,36,17.70
2008,08,19,14,37,17.70
2008,08,19,14,38,17.70
2008,08,19,14,39,17.60
2008,08,19,14,40,17.60
2008,08,19,14,41,17.60
2008,08,19,14,42,17.60
2008,08,19,14,43,17.60
2008,08,19,14,44,17.60
2008,08,19,14,45,17.60
2008,08,19,14,46,17.70
2008,08,19,14,47,17.70
2008,08,19,14,48,17.70
2008,08,19,14,49,17.70
2008,08,19,14,50,17.70
2008,08,19,14,51,17.80
2008,08,19,14,52,17.80
2008,08,19,14,53,17.80
2008,08,19,14,54,17.70
2008,08,19,14,55,17.70
2008,08,19,14,56,17.70
2008,08,19,14,57,17.80
2008,08,19,14,58,17.90
2008,08,19,14,59,18.00
2008,08,19,15,00,18.10
2008,08,19,15,01,18.20
2008,08,19,15,02,18.40
2008,08,19,15,03,18.40
2008,08,19,15,04,18.30
2008,08,19,15,05,18.20
2008,08,19,15,06,18.10
2008,08,19,15,07,18.10
2008,08,19,15,08,18.10
2008,08,19,15,09,18.10
2008,08,19,15,10,18.10
2008,08,19,15,11,18.20
2008,08,19,15,12,18.30
2008,08,19,15,13,18.30
2008,08,19,15,14,18.30
2008,08,19,15,15,18.40
2008,08,19,15,16,18.40
2008,08,19,15,17,18.40
2008,08,19,15,18,18.40
2008,08,19,15,19,18.30
2008,08,19,15,20,18.30
2008,08,19,15,21,18.30
2008,08,19,15,22,18.20
2008,08,19,15,23,18.10
2008,08,19,15,24,18.10
2008,08,19,15,25,18.10
2008,08,19,15,26,18.00
2008,08,19,15,27,18.00
2008,08,19,15,28,18.00
2008,08,19,15,29,18.00
2008,08,19,15,30,18.00
2008,08,19,15,31,18.00
2008,08,19,15,32,17.90
2008,08,19,15,33,17.90
2008,08,19,15,34,17.90
2008,08,19,15,35,18.00
2008,08,19,15,36,18.00
2008,08,19,15,37,18.10
2008,08,19,15,38,18.10
2008,08,19,15,39,18.10
2008,08,19,15,40,18.10
2008,08,19,15,41,18.10
2008,08,19,15,42,18.00
2008,08,19,15,43,18.00
2008,08,19,15,44,18.00
2008,08,19,15,45,18.00
2008,08,19,15,46,17.90
2008,08,19,15,47,17.90
2008,08,19,15,48,17.90
2008,08,19,15,49,17.90
2008,08,19,15,50,17.90
2008,08,19,15,51,17.90
2008,08,19,15,52,17.90
2008,08,19,15,53,17.90
2008,08,19,15,54,17.80
2008,08,19,15,55,17.80
2008,08,19,15,56,17.80
2008,08,19,15,57,17.90
2008,08,19,15,58,17.90
2008,08,19,15,59,18.00
2008,08,19,16,00,18.00
2008,08,19,16,01,18.10
2008,08,19,16,02,18.10
2008,08,19,16,03,18.00
2008,08,19,16,04,18.10
2008,08,19,16,05,18.10
2008,08,19,16,06,18.00
2008,08,19,16,07,18.10
2008,08,19,16,08,18.10
2008,08,19,16,09,18.10
2008,08,19,16,10,18.00
2008,08,19,16,11,18.00
2008,08,19,16,12,18.00
2008,08,19,16,13,17.90
2008,08,19,16,14,17.90
2008,08,19,16,15,17.90
2008,08,19,16,16,17.90
2008,08,19,16,17,17.90
2008,08,19,16,18,17.90
2008,08,19,16,19,17.90
2008,08,19,16,20,17.90
2008,08,19,16,21,17.90
2008,08,19,16,22,17.90
2008,08,19,16,23,17.90
2008,08,19,16,24,17.80
2008,08,19,16,25,17.80
2008,08,19,16,26,17.80
2008,08,19,16,27,17.70
2008,08,19,16,28,17.70
2008,08,19,16,29,17.60
2008,08,19,16,30,17.60
2008,08,19,16,31,17.60
2008,08,19,16,32,17.60
2008,08,19,16,33,17.60
2008,08,19,16,34,17.50
2008,08,19,16,35,17.50
2008,08,19,16,36,17.60
2008,08,19,16,37,17.60
2008,08,19,16,38,17.60
2008,08,19,16,39,17.60
2008,08,19,16,40,17.60
2008,08,19,16,41,17.60
2008,08,19,16,42,17.50
2008,08,19,16,43,17.50
2008,08,19,16,44,17.50
2008,08,19,16,45,17.50
2008,08,19,16,46,17.60
2008,08,19,16,47,17.60
2008,08,19,16,48,17.50
2008,08,19,16,49,17.50
2008,08,19,16,50,17.50
2008,08,19,16,51,17.50
2008,08,19,16,52,17.40
2008,08,19,16,53,17.40
2008,08,19,16,54,17.40
2008,08,19,16,55,17.40
2008,08,19,16,56,17.40
2008,08,19,16,57,17.40
2008,08,19,16,58,17.40
2008,08,19,16,59,17.30
2008,08,19,17,00,17.40
2008,08,19,17,01,17.40
2008,08,19,17,02,17.30
2008,08,19,17,03,17.30
2008,08,19,17,04,17.30
2008,08,19,17,05,17.30
2008,08,19,17,06,17.30
2008,08,19,17,07,17.30
2008,08,19,17,08,17.30
2008,08,19,17,09,17.30
2008,08,19,17,10,17.30
2008,08,19,17,11,17.30
2008,08,19,17,12,17.30
2008,08,19,17,13,17.30
2008,08,19,17,14,17.30
2008,08,19,17,15,17.30
2008,08,19,17,16,17.30
2008,08,19,17,17,17.20
2008,08,19,17,18,17.20
2008,08,19,17,19,17.20